Regional Weather Roundup
Issued by NWS Green Bay, WI

Home | Current Version | Previous Version | Graphics & Text | Print | Product List | Glossary Off
Versions: 1 2 3 4 5 6 7 8 9 10 11 12 13 14 15 16 17 18 19 20 21 22 23 24 25 26 27 28 29 30 31 32 33 34 35 36 37 38 39 40 41 42 43 44 45 46 47 48 49 50

133
ASUS43 KGRB 131311
RWRGRB

NORTH-CENTRAL AND NORTHEAST WISCONSIN REGIONAL WEATHER ROUNDUP
NATIONAL WEATHER SERVICE GREEN BAY WI
700 AM CST SAT FEB 13 2016

WIZ005-009-010>012-018-019-131400-
NORTH CENTRAL WISCONSIN

CITY           SKY/WX    TMP DP  RH WIND       PRES   REMARKS
IRONWOOD       CLOUDY     0  -4  85 NW8       30.44S WCI -15
MANITOWISH WTR PTCLDY   -11 -15  83 W5        30.41F WCI -23
ARBOR VITAE    CLOUDY    -8 -13  78 CALM      30.42S
EAGLE RIVER    FLURRIES  -8 -14  73 W5        30.39F WCI -19
LAND O LAKES   LGT SNOW  -5 -10  80 SW3       30.39S
RHINELANDER    CLOUDY   -13 -17  82 W7        30.42S WCI -29
PHILLIPS       CLOUDY   -16 -20  81 CALM      30.47S
ANTIGO         CLOUDY   -12 -16  82 NW8       30.43S WCI -29
TOMAHAWK       CLOUDY   -13 -17  80 W3        30.46S
MERRILL        CLOUDY   -10 -15  78 NW3       30.49S
$$

WIZ013-073-131400-
NORTHEAST WISCONSIN

CITY           SKY/WX    TMP DP  RH WIND       PRES   REMARKS
IRON MOUNTAIN  CLEAR    -10 -16  74 NW5       30.42R WCI -22
MARINETTE      CLEAR     -6 -11  77 NW7       30.49R WCI -20
OCONTO         CLEAR     -6 -13  72 W8        30.52R WCI -22
$$

WIZ017-030-035>037-045-131400-
CENTRAL WISCONSIN

CITY           SKY/WX    TMP DP  RH WIND       PRES   REMARKS
MEDFORD        CLOUDY   -14 -19  76 W5        30.48R WCI -26
WAUSAU         CLOUDY    -9 -15  75 NW6       30.49S WCI -22
MOSINEE        CLEAR     -9 -15  77 NW3       30.51S
MARSHFIELD     CLOUDY   -10 -20  61 NW8       30.51R WCI -26
WISC RAPIDS    CLOUDY    -9 -18  64 NW6       30.56S WCI -22
STEVENS POINT  CLOUDY   -10 -17  69 W3        30.53R
WAUPACA        PTCLDY    -3 -14  61 NW7       30.54F WCI -17
SHAWANO        PTCLDY    -3 -12  67 CALM      30.53R
CLINTONVILLE   CLEAR     -4 -13  65 NW8       30.53R WCI -19
WAUTOMA        CLOUDY    -8 -18  62 W9        30.57R WCI -25
$$

WIZ038-039-048-051-131400-
FOX VALLEY

CITY           SKY/WX    TMP DP  RH WIND       PRES   REMARKS
NWS GREEN BAY  CLEAR     -5 -13  68 NW13      30.52R WCI -24
APPLETON       CLEAR     -6 -17  59 W14       30.50R WCI -26
OSHKOSH        CLOUDY    -6 -15  65 W7        30.53R WCI -20
FOND DU LAC    CLOUDY    -4 -15  59 NW12      30.53R WCI -22
$$

WIZ022-050-052-131400-
EAST CENTRAL WISCONSIN

CITY           SKY/WX    TMP DP  RH WIND       PRES   REMARKS
EPHRAIM        FAIR      -1  -8  72 NW10G18   30.44R WCI -17
STURGEON BAY   CLEAR     -6 -15  65 W13       30.49R WCI -25
MANITOWOC      CLEAR     -3 -12  65 NW12      30.52R WCI -21
SHEBOYGAN      CLEAR     -3 -13  62 W12G20    30.52R WCI -21
$$

LMZ563-521-522-541>543-131400-
LAKESHORE

STATION/POSITION TIME  TEMP    WIND        PRES    VSBY  WAVE
                       AIR SEA DIR/SP/G                  HT/PER
                 (UTC) (F)     (DEG/KT/KT) (MB)    (MI)  (FT/S)
SHEBOYGAN LKSHOR 1200   -1     290/ 13/ 16 1035.2R
KEWAUNEE LKSHORE 1200   -2     300/  9/ 12 1031.3R
CHAMBERS ISLAND  1200   -1     290/  6/ 13 1031.2S
MENOMINEE LKSHOR 1200   -4     270/  8     1031.0S
$$




USA.gov is the U.S. government's official web portal to all federal, state and local government web resources and services.